Weather History for Christchurch, New Zealand

Change the Weather History Date:

Thursday, November 8, 2012

  Actual Average Record
Temperature  
Mean Temperature 42 °F -  
Max Temperature 57 °F 63 °F 75 °F (1999)
Min Temperature 28 °F 43 °F 28 °F (2012)
Degree Days  
Heating Degree Days 22    
Moisture  
Dew Point 40 °F    
Average Humidity 81    
Maximum Humidity 100    
Minimum Humidity 63    
Precipitation  
Precipitation 0.00 in - - ()
Sea Level Pressure  
Sea Level Pressure 30.32 in    
Wind  
Wind Speed 6 mph ()    
Max Wind Speed 17 mph    
Max Gust Speed -    
Visibility 6.2 miles    
Events Fog    
Averages and records for this station are not official NWS values.
T = Trace of Precipitation, MM = Missing Value Source: Averaged Metar Reports

Daily Weather History Graph

Daily Weather History Graph

Search for Another Location

Airport:

Trip Planner

Search our weather history database for the weather conditions in past years. The results will help you decide how hot, cold, wet, or windy it might be!

Date:

Astronomy

Nov. 08, 2012 Rise Set
Actual Time 6:03 AM NZDT 8:24 PM NZDT
Civil Twilight 5:31 AM NZDT 8:56 PM NZDT
Nautical Twilight 4:51 AM NZDT 9:36 PM NZDT
Astronomical Twilight 4:07 AM NZDT 10:21 PM NZDT
Moon 2:27 AM NZDT (11/8) 1:43 PM NZDT (11/8)
Length of Visible Light 15h 25m
Length of Day
14h 21m
Last Quarter, 40% of the Moon is Illuminated
Nov 8
Last Quarter
Nov 14
New
Nov 21
First Quarter
Nov 29
Full
Dec 7
Last Quarter

Hourly Weather History & Observations

Time (NZDT) Temp. Windchill Dew Point Humidity Pressure Visibility Wind Dir Wind Speed Gust Speed Precip Events Conditions
12:00 AM 37.4 °F - 35.6 °F 93% 30.36 in - Calm Calm - N/A   Clear
1:00 AM 35.6 °F - 33.8 °F 93% 30.36 in - Calm Calm - N/A   Clear
2:00 AM 33.8 °F - 32.0 °F 93% 30.36 in - NNW 1.2 mph - N/A   Clear
3:00 AM 33.8 °F - 32.0 °F 93% 30.36 in - WSW 2.3 mph - N/A   Clear
4:00 AM 32.0 °F - 32.0 °F 100% 30.36 in 6.2 mi SW 2.3 mph - N/A   Partly Cloudy
5:00 AM 32.0 °F 28.7 °F 30.2 °F 93% 30.36 in 6.2 mi SW 3.5 mph - N/A Fog Patches of Fog
6:00 AM 28.4 °F - 28.4 °F 100% 30.36 in 6.2 mi Calm Calm - N/A Fog Shallow Fog
7:00 AM 30.2 °F - 30.2 °F 100% 30.36 in 6.2 mi Calm Calm - N/A Fog Shallow Fog
8:00 AM 39.2 °F - 39.2 °F 100% 30.36 in 6.2 mi NNE 1.2 mph - N/A Fog Shallow Fog
9:00 AM 48.2 °F - 42.8 °F 82% 30.36 in - NNE 8.1 mph - N/A   Clear
10:00 AM 51.8 °F - 44.6 °F 76% 30.36 in 6.2 mi NE 12.7 mph - N/A   Partly Cloudy
11:00 AM 53.6 °F - 44.6 °F 72% 30.36 in 6.2 mi East 13.8 mph - N/A   Partly Cloudy
12:00 PM 55.4 °F - 44.6 °F 67% 30.33 in 6.2 mi East 12.7 mph - N/A   Partly Cloudy
1:00 PM 57.2 °F - 44.6 °F 63% 30.33 in 6.2 mi ENE 13.8 mph - N/A   Partly Cloudy
2:00 PM 57.2 °F - 44.6 °F 63% 30.30 in 6.2 mi ENE 13.8 mph - N/A   Unknown
3:00 PM 57.2 °F - 44.6 °F 63% 30.27 in - ENE 15.0 mph - N/A   Clear
4:00 PM 57.2 °F - 44.6 °F 63% 30.27 in - ENE 15.0 mph - N/A   Clear
5:00 PM 57.2 °F - 44.6 °F 63% 30.24 in - ENE 16.1 mph - N/A   Clear
6:00 PM 55.4 °F - 44.6 °F 67% 30.24 in - ENE 16.1 mph - N/A   Clear
7:00 PM 53.6 °F - 44.6 °F 72% 30.24 in - ENE 17.3 mph - N/A   Clear
8:00 PM 51.8 °F - 44.6 °F 76% 30.24 in - ENE 16.1 mph - N/A   Clear
9:00 PM 50.0 °F - 44.6 °F 82% 30.27 in - ENE 13.8 mph - N/A   Clear
10:00 PM 50.0 °F - 44.6 °F 82% 30.27 in - East 15.0 mph - N/A   Clear
11:00 PM 48.2 °F - 42.8 °F 82% 30.27 in - ENE 12.7 mph - N/A   Clear